Hourly Weather Rudnya-Ushomyrs'ka

Today, 21 April, Wednesday

Time Temperature Precipitation Wind Pressure Humidity
00:00 +5°C° 0 mm 2 mps 741 mmHg 90%
01:00 +5°C° 0 mm 2 mps 741 mmHg 90%
02:00 +4°C° 0 mm 2 mps 741 mmHg 92%
03:00 +5°C° 0.1 mm 2 mps 741 mmHg 92%
04:00 +5°C° 0.1 mm 2 mps 741 mmHg 91%
05:00 +5°C° 0.1 mm 2 mps 741 mmHg 91%
06:00 +5°C° 0.1 mm 2 mps 741 mmHg 87%
07:00 +5°C° 0.1 mm 3 mps 741 mmHg 83%
08:00 +7°C° 0 mm 3 mps 741 mmHg 80%
09:00 +8°C° 0.1 mm 3 mps 742 mmHg 76%
10:00 +8°C° 0.1 mm 4 mps 742 mmHg 72%
11:00 +10°C° 0.1 mm 4 mps 742 mmHg 68%
12:00 +10°C° 0.1 mm 4 mps 742 mmHg 66%
13:00 +11°C° 0.1 mm 4 mps 742 mmHg 64%
14:00 +12°C° 0 mm 4 mps 742 mmHg 61%
15:00 +12°C° 0.1 mm 4 mps 742 mmHg 62%
16:00 +12°C° 0.1 mm 4 mps 741 mmHg 62%
17:00 +12°C° 0.1 mm 3 mps 741 mmHg 63%
18:00 +11°C° 0.1 mm 3 mps 742 mmHg 69%
19:00 +9°C° 0.1 mm 3 mps 742 mmHg 76%
20:00 +8°C° 0.1 mm 3 mps 742 mmHg 82%
21:00 +8°C° 0 mm 3 mps 742 mmHg 82%
22:00 +7°C° 0 mm 3 mps 742 mmHg 83%
23:00 +7°C° 0 mm 3 mps 742 mmHg 84%

Tomorrow, 22 April, Thursday

Time Temperature Precipitation Wind Pressure Humidity
00:00 +5°C° 0 mm 4 mps 742 mmHg 85%
01:00 +5°C° 0 mm 4 mps 743 mmHg 86%
02:00 +5°C° 0 mm 4 mps 743 mmHg 87%
03:00 +5°C° 0 mm 4 mps 743 mmHg 88%
04:00 +5°C° 0 mm 4 mps 743 mmHg 90%
05:00 +5°C° 0 mm 3 mps 743 mmHg 92%
06:00 +6°C° 0 mm 4 mps 743 mmHg 86%
07:00 +8°C° 0 mm 4 mps 743 mmHg 80%
08:00 +10°C° 0 mm 5 mps 744 mmHg 75%
09:00 +12°C° 0.1 mm 5 mps 744 mmHg 69%
10:00 +13°C° 0.1 mm 6 mps 744 mmHg 63%
11:00 +15°C° 0.1 mm 6 mps 744 mmHg 57%
12:00 +15°C° 0.6 mm 6 mps 743 mmHg 58%
13:00 +15°C° 0.6 mm 6 mps 743 mmHg 58%
14:00 +15°C° 0.6 mm 6 mps 743 mmHg 58%
15:00 +14°C° 0.6 mm 6 mps 743 mmHg 64%
16:00 +13°C° 0.6 mm 5 mps 743 mmHg 70%
17:00 +12°C° 0.6 mm 5 mps 743 mmHg 76%
18:00 +10°C° 0.4 mm 4 mps 743 mmHg 81%
19:00 +9°C° 0.4 mm 3 mps 743 mmHg 87%
20:00 +8°C° 0.4 mm 2 mps 744 mmHg 92%
21:00 +8°C° 0.5 mm 3 mps 744 mmHg 92%
22:00 +6°C° 0.5 mm 4 mps 743 mmHg 92%
23:00 +6°C° 0.5 mm 5 mps 743 mmHg 92%

Day after tomorrow, 23 April, Friday

Time Temperature Precipitation Wind Pressure Humidity
00:00 +5°C° 0.9 mm 4 mps 744 mmHg 91%
01:00 +4°C° 0.9 mm 3 mps 744 mmHg 90%
02:00 +5°C° 0.9 mm 2 mps 744 mmHg 90%
03:00 +3°C° 0 mm 3 mps 744 mmHg 90%
04:00 +3°C° 0 mm 3 mps 744 mmHg 90%
05:00 +3°C° 0 mm 3 mps 745 mmHg 90%
06:00 +3°C° 0 mm 3 mps 745 mmHg 84%
07:00 +4°C° 0 mm 4 mps 745 mmHg 78%
08:00 +4°C° 0 mm 4 mps 745 mmHg 72%
09:00 +5°C° 0 mm 4 mps 745 mmHg 66%
10:00 +6°C° 0 mm 4 mps 745 mmHg 60%
11:00 +7°C° 0 mm 4 mps 746 mmHg 54%
12:00 +7°C° 0 mm 5 mps 745 mmHg 51%
13:00 +8°C° 0 mm 6 mps 745 mmHg 48%
14:00 +8°C° 0 mm 6 mps 745 mmHg 46%
15:00 +8°C° 0.1 mm 6 mps 745 mmHg 48%
16:00 +7°C° 0.1 mm 6 mps 745 mmHg 50%
17:00 +7°C° 0.1 mm 5 mps 745 mmHg 52%
18:00 +6°C° 0 mm 4 mps 745 mmHg 59%
19:00 +4°C° 0 mm 3 mps 745 mmHg 67%
20:00 +3°C° 0 mm 3 mps 746 mmHg 74%
21:00 +2°C° 0 mm 3 mps 745 mmHg 76%
22:00 +2°C° 0 mm 3 mps 745 mmHg 78%
23:00 +2°C° 0 mm 3 mps 745 mmHg 80%

24 April, Saturday

Time Temperature Precipitation Wind Pressure Humidity
00:00 +1°C° 0 mm 3 mps 745 mmHg 81%
01:00 0°C° 0 mm 4 mps 744 mmHg 83%
02:00 0°C° 0 mm 4 mps 744 mmHg 84%
03:00 -1°C° 1.2 mm 5 mps 744 mmHg 89%
04:00 -1°C° 1.2 mm 5 mps 744 mmHg 93%
05:00 -2°C° 1.2 mm 6 mps 743 mmHg 98%
06:00 -2°C° 0.9 mm 7 mps 744 mmHg 96%
07:00 -2°C° 0.9 mm 7 mps 745 mmHg 94%
08:00 -2°C° 0.9 mm 8 mps 745 mmHg 92%
09:00 -1°C° 0.1 mm 7 mps 746 mmHg 86%
10:00 0°C° 0.1 mm 7 mps 746 mmHg 79%
11:00 +2°C° 0.1 mm 7 mps 747 mmHg 73%
12:00 +3°C° 0.2 mm 7 mps 747 mmHg 68%
13:00 +4°C° 0.2 mm 7 mps 747 mmHg 64%
14:00 +4°C° 0.2 mm 7 mps 747 mmHg 59%
15:00 +4°C° 0.2 mm 6 mps 747 mmHg 61%
16:00 +4°C° 0.2 mm 6 mps 747 mmHg 62%
17:00 +5°C° 0.2 mm 5 mps 747 mmHg 64%
18:00 +4°C° 0 mm 4 mps 747 mmHg 69%
19:00 +3°C° 0 mm 4 mps 747 mmHg 74%
20:00 +1°C° 0 mm 3 mps 747 mmHg 79%
21:00 +1°C° 0 mm 3 mps 747 mmHg 80%
22:00 0°C° 0 mm 3 mps 747 mmHg 82%
23:00 0°C° 0 mm 3 mps 747 mmHg 83%

25 April, Sunday

Time Temperature Precipitation Wind Pressure Humidity
00:00 0°C° 0 mm 3 mps 747 mmHg 84%
01:00 -1°C° 0 mm 3 mps 747 mmHg 86%
02:00 -1°C° 0 mm 3 mps 747 mmHg 87%
03:00 -1°C° 0 mm 3 mps 747 mmHg 88%
04:00 -1°C° 0 mm 3 mps 746 mmHg 88%
05:00 -1°C° 0 mm 3 mps 746 mmHg 89%
06:00 0°C° 0 mm 3 mps 746 mmHg 84%
07:00 0°C° 0 mm 4 mps 747 mmHg 80%
08:00 +1°C° 0 mm 5 mps 747 mmHg 75%
09:00 +2°C° 0 mm 5 mps 747 mmHg 69%
10:00 +3°C° 0 mm 6 mps 747 mmHg 62%
11:00 +4°C° 0 mm 6 mps 747 mmHg 56%
12:00 +3°C° 0 mm 6 mps 747 mmHg 56%
13:00 +3°C° 0 mm 6 mps 747 mmHg 56%
14:00 +3°C° 0 mm 6 mps 748 mmHg 57%
15:00 +3°C° 0.1 mm 6 mps 747 mmHg 56%
16:00 +5°C° 0.1 mm 5 mps 747 mmHg 55%
17:00 +5°C° 0.1 mm 5 mps 747 mmHg 55%
18:00 +4°C° 0 mm 4 mps 747 mmHg 62%
19:00 +1°C° 0 mm 4 mps 747 mmHg 69%
20:00 +1°C° 0 mm 3 mps 747 mmHg 76%
21:00 0°C° 0 mm 3 mps 747 mmHg 78%
22:00 0°C° 0 mm 3 mps 747 mmHg 81%
23:00 -1°C° 0 mm 4 mps 747 mmHg 83%

26 April, Monday

Time Temperature Precipitation Wind Pressure Humidity
00:00 -1°C° 0 mm 4 mps 747 mmHg 84%
01:00 -1°C° 0 mm 4 mps 746 mmHg 85%
02:00 -2°C° 0 mm 4 mps 746 mmHg 86%
03:00 -2°C° 0 mm 4 mps 746 mmHg 89%
04:00 -1°C° 0 mm 3 mps 746 mmHg 91%
05:00 -2°C° 0 mm 3 mps 747 mmHg 93%
06:00 -2°C° 0 mm 4 mps 747 mmHg 83%
07:00 0°C° 0 mm 4 mps 747 mmHg 74%
08:00 +1°C° 0 mm 5 mps 747 mmHg 64%
09:00 +2°C° 0 mm 5 mps 747 mmHg 57%
10:00 +3°C° 0 mm 5 mps 747 mmHg 50%
11:00 +5°C° 0 mm 5 mps 747 mmHg 43%
12:00 +6°C° 0 mm 4 mps 747 mmHg 42%
13:00 +7°C° 0 mm 4 mps 746 mmHg 41%
14:00 +7°C° 0 mm 4 mps 746 mmHg 41%
15:00 +8°C° 0 mm 3 mps 746 mmHg 42%
16:00 +8°C° 0 mm 3 mps 745 mmHg 43%
17:00 +8°C° 0 mm 2 mps 745 mmHg 44%
18:00 +7°C° 0 mm 2 mps 745 mmHg 50%
19:00 +5°C° 0 mm 2 mps 744 mmHg 56%
20:00 +4°C° 0 mm 2 mps 744 mmHg 63%
21:00 +4°C° 0.1 mm 2 mps 744 mmHg 66%
22:00 +5°C° 0.1 mm 1 mps 744 mmHg 69%
23:00 +4°C° 0.1 mm 1 mps 744 mmHg 72%
Show more